{"data":{"norad_id":68563,"epoch":"2026-05-25T04:00:03.998880Z","epoch_age_seconds":54451,"freshness":"FRESH","line1":"1 68563U 26070X   26145.16671295  .00011578  00000+0  35343-3 0  9990","line2":"2 68563  53.1587   6.6664 0000900  79.1601 271.7469 15.34385932  5903","mean_motion":15.34385932,"eccentricity":9.0e-5,"inclination_deg":53.1587,"raan_deg":6.6664,"arg_perigee_deg":79.1601,"mean_anomaly_deg":271.7469,"bstar":0.00035343,"rev_number":590,"period_min":93.848618523439,"perigee_km":462.12937420245,"apogee_km":463.36073297209,"semimajor_km":6840.8820535873,"source":"CELESTRAK","updated_at":"2026-05-25T13:38:21.964023Z"}}